Location: Rounton
(54.4000°N, 1.3500°W)
Time: 03:27:45
(UTC+00:00)

Envisat - Pass Details

Date: 28 October 2021
Orbit: 764 x 766 km, 98.2° (Epoch: 28 November)

Event Time Altitude Azimuth Distance (km) Brightness Sun altitude
Rises 06:06:08 0° 17° (NNE) 3,247 6.5 -16.9°
Reaches altitude 10° 06:08:29 10° 21° (NNE) 2,316 5.8 -16.6°
Maximum altitude 06:13:32 60° 101° (E) 880 3.6 -15.9°
Drops below altitude 10° 06:18:32 10° 181° (S) 2,298 5.5 -15.1°
Sets 06:20:52 0° 186° (S) 3,219 6.2 -14.8°
